Location: ???? ??????? ????
(31.2176°N, 31.6797°E)
Time: 18:40:42
(UTC+00:00)

Cosmos 1980 Rocket - Pass Details

Date: 29 October 2020
Orbit: 831 x 848 km, 71.0° (Epoch: 01 December)

Event Time Altitude Azimuth Distance (km) Brightness Sun altitude
Rises 15:43:35 0° 174° (S) 3,378 5.4 -8.5°
Reaches altitude 10° 15:46:15 10° 164° (SSE) 2,445 4.6 -9.0°
Maximum altitude 15:51:09 32° 103° (ESE) 1,402 2.9 -10.1°
Drops below altitude 10° 15:56:03 10° 42° (NE) 2,446 4.1 -11.1°
Enters shadow 15:57:34 - 36° (NE) 2,970 4.6 -11.4°
